Погода в Иогаче

Россия / Республика Алтай     51°47′03″N   87°15′24″E
темп.,
°C
ветер,
м/с
пор.,
м/с
влажн.,
%
обл.,
%
осадки,
мм/ч
давл.,
гПа
погр.,
м
22 января, пт
пт2201:00−5юв2283100 0.1 101325
04:00−4юв2284100 0.0 101048
07:00−4юв3477100 0.0 1008112
10:00−3ссз1184100 0.0 100928
13:00−3ссз2392100 0.0 1007337
16:00−5ссз2396100 0.6 1009358
19:00−8сз2297100 1.5 1012118
22:00−10сз2397100 1.9 1014173
23 января, сб
сб2301:00−12сз1297100 3.8 1018141
04:00−13ссз2397100 1.1 1022165
07:00−16ссв1297100 1.7 102766
10:00−17ссв1198100 0.2 103060
13:00−15ссз1194100 0.3 1030281
16:00−15с1194100 0.1 1030283
19:00−17в1197100 0.1 103320
22:00−17всв0197100 0.1 103420
24 января, вс
вс2401:00−17вюв0196100 0.2 103320
04:00−16св0097100 0.3 103420
07:00−15ююв2285100 0.3 103423
10:00−15ююв2282100 0.0 103560
13:00−10зюз1569100 0.0 10321226
16:00−12ссз1294100 0.1 1031190
19:00−15сз2398100 0.6 1034132
22:00−18ссз2399100 1.1 1036220
25 января, пн
пн2501:00−21ссз12100100 1.6 1038108
04:00−24ссз11100100 0.4 104039
07:00−26с01100100 0.7 104219
10:00−25ю0098100 0.1 104344
13:00−22ссз1193100 0.2 1041285
16:00−22ссз1195100 0.1 1041294
19:00−25вюв0099100 0.1 104419
22:00−26юв1194100 0.0 104419
26 января, вт
вт2601:00−27юв1187100 0.0 104419
04:00−26юв1182100 0.0 104419
07:00−25юв1180100 0.0 104320
10:00−22юв1183100 0.0 104323
13:00−17ссз1179100 0.0 1040259
16:00−18сз1189100 0.0 1039218
19:00−23ююв1194100 0.0 104220
22:00−23ююв1285100 0.0 104420